COSMOS 252 DEB *, 4421

Orbit data source: Space-Track

COSMOS 252 DEB *, 4421 is space debris in LEO originally from a launch on Fri, 01 Nov 1968 UTC launched from the Tyuratam Missile And Space Complex (TTMTR). Debris objects in space refer to the collection of defunct objects orbiting the Earth. Examples of debris include non-operational satellites, rocket bodies, and fragments generated from explosions, collisions, or faulty payload assembly.

Loading next visibility...
Identifier
4421, 1968-097CF
Orbit
LEO
Country
Flag of CISCIS
Related business
Manufacturer
Unknown
Mission
Spacecraft
Bus & Motor
Unknown
Mass
Unknown
Launch date (UTC)
1968-11-01 (58 years ago)
Launch vehicle
Unknown
Launch site
Tyuratam Missile And Space Complex (TTMTR)
Object type
Payload
Rocket body
Debris
Shape & HBR
Unknown shape, 0.1 m
Radar Cross Section
Medium (>0.1 m² and <1 m²)

Expand to show TLE details & history
Last TLE update: 8 hours ago

TLE from 8 hours ago
0 COSMOS 252 DEB *
1 04421U 68097CF  26175.16817163  .00001976  00000-0  34663-3 0  9993
2 04421  62.7325 180.9043 0615203 175.8393 184.8124 13.90838657560410
Epoch: 2026-06-24T04:02Z
TLE epoch observation values (Epoch: 2026-06-24T04:02:10.028Z)
Latitude
0.00004°
Longitude
-151.96672°
Altitude
1,375.412 km
Speed
6.949 km/s
True Right ascension
12h 03m 37s
True Declination
0° 00' 00"
Sunlit
Object was in daylight at epoch
Visualization orbit readout
Latitude
Unknown
Longitude
Unknown
Altitude
Unknown
Speed
Unknown
Apparent Right ascension
Unknown
Apparent Declination
Unknown
Sunlit
N/A
Visualization observer readout
Local Sidereal Time
22:50:19
Azimuth
Unknown
Elevation
Unknown
Doppler factor
Unknown
Orbital elements
Apogee altitude
1,373.84 km
Perigee altitude
475.31 km
Semi-major axis
7,302.712 km
Eccentricity
0.06152
Inclination
62.7325°
RAAN
180.9043°
Arg. of periapsis
175.8393°
True anomaly
184.26319°
Mean anomaly
184.8124°
Eccentric anomaly
184.53377°
Mean motion
3.4779 °/min
Orbital period
103.51 mins
BSTAR
0.00034663
Loading maneuver chart data...
Computing Atmospheric mass density...
Loading historical data...
Loading historical data...
Loading historical data...
Loading historical data...
Loading historical data...
Loading historical data...
Loading historical data...

Documentation

Showing up to 5 results
|